Regional Weather Roundup
Issued by NWS Burlington, VT

Home | Current Version | Previous Version | Text Only | Print | Product List | Glossary On
Versions: 1 2 3 4 5 6 7 8 9 10 11 12 13 14 15 16 17 18 19 20 21 22 23 24 25 26 27 28 29 30 31 32 33 34 35 36 37 38 39 40 41 42 43 44 45 46 47 48 49 50
000
ASUS41 KBTV 130910
RWRBTV
VERMONT REGIONAL WEATHER ROUNDUP
NATIONAL WEATHER SERVICE BURLINGTON VT
400 AM EST SAT FEB 13 2016

NOTE: "FAIR" INDICATES FEW OR NO CLOUDS BELOW 12,000 FEET WITH NO
SIGNIFICANT WEATHER AND/OR OBSTRUCTIONS TO VISIBILITY.

* THESE REPORTS ARE NOT UNDER NWS QUALITY CONTROL AND/OR DO NOT
  REPORT WEATHER SUCH AS PRECIPITATION AND FOG.

VTZ001>019-131000-
_____VERMONT_____


CITY           SKY/WX    TMP DP  RH WIND       PRES   REMARKS
BURLINGTON     LGT SNOW  14   7  73 N12       29.82R WCI   0
MONTPELIER     LGT SNOW  10   3  73 CALM      29.74S
MORRISVILLE    LGT SNOW  14   8  77 NW10      29.77R VSB 3/4 WCI   1
ST. JOHNSBURY*   N/A     12   4  70 MISG      29.73F
LYNDONVILLE*   CLOUDY    11   2  67 CALM      29.72S
RUTLAND*       CLOUDY    16   7  67 SW8       29.75S WCI   5
SPRINGFIELD    FAIR       2  -1  88 CALM      29.78F
HIGHGATE*      CLOUDY     9   3  76 NW8       29.85R WCI  -3
NEWPORT*       LGT SNOW  12   9  86 S7        29.72S WCI   1
BENNINGTON     CLOUDY    10   5  80 CALM      29.77S

_____LAKE CHAMPLAIN_____


CITY           SKY/WX    TMP DP  RH WIND       PRES   REMARKS

$$

NYZ007-026>031-035-052-083-131000-
_____NORTHERN NEW YORK_____


CITY           SKY/WX    TMP DP  RH WIND       PRES   REMARKS
PLATTSBURGH    CLOUDY    13   1  59 NW9G17    29.84R WCI   1
SARANAC LAKE   MOCLDY     2  -3  80 W7        29.73R WCI -11
MASSENA        PTCLDY    -2 -11  65 NW18G24   29.98R WCI -24
OGDENSBURG*    CLEAR     -6 -11  77 N14G24    30.00R HAZE    WCI -26
WATERTOWN      CLOUDY     2  -4  76 N15       29.99R HAZE    WCI -17
ALBANY         CLEAR     14   5  67 CALM      29.82F
GLENS FALLS    MOCLDY     6   0  76 S3        29.81S

$$
NHZ002-005-011-131000-
_____NEW HAMPSHIRE_____


CITY           SKY/WX    TMP DP  RH WIND       PRES   REMARKS
LEBANON        MOCLDY     9   4  80 CALM      29.76F
MT WASHINGTON  SNOW      -8  -8 100 W22         N/A  VSB 1/16WCI -33
PLYMOUTH       CLOUDY     6   4  88 CALM      29.78F
WHITEFIELD     LGT SNOW   9   4  80 CALM      29.71F

$$

_____REGIONAL QUEBEC LOCATIONS_____


CITY           SKY/WX    TMP DP  RH WIND       PRES   REMARKS
MONTREAL       MOCLDY     5  -4  66 W16       29.87R WCI -14
QUEBEC CITY    LGT SNOW  10   7  85 E9        29.73F WCI  -2
SHERBROOKE     CLOUDY    14   5  67 W3        29.70F

_____REGIONAL ONTARIO LOCATIONS_____


CITY           SKY/WX    TMP DP  RH WIND       PRES   REMARKS
OTTAWA         PTCLDY   -11 -20  64 NW26      30.01R WCI -40

______KEY______
VSB  - VISIBILITY IN MILES
WCI  - WIND CHILL INDEX
HX   - HEAT INDEX
$$
NNNN



USA.gov is the U.S. government's official web portal to all federal, state and local government web resources and services.